Location: Fluertsh�userhof
(48.7537°N, 10.3850°E)
Time: 03:48:34
(UTC+00:00)

Cosmos 1626 - Pass Details

Date: 21 January 2021
Orbit: 490 x 493 km, 82.5° (Epoch: 07 March)

Event Time Altitude Azimuth Distance (km) Brightness Sun altitude
Rises 17:50:56 0° 236° (WSW) 2,570 7.0 -18.1°
Reaches altitude 10° 17:54:02 10° 265° (W) 1,693 6.1 -18.6°
Maximum altitude 17:55:50 13° 295° (WNW) 1,510 5.3 -18.9°
Drops below altitude 10° 17:57:39 10° 324° (NW) 1,699 5.2 -19.2°
Sets 18:00:47 0° 353° (N) 2,587 5.8 -19.7°
